GW2622 Weather Reports


time (UTC)temp
C
wind
direction
speed
KPH
gust
KPH
rain 1hr
cm
rain 24hr
cm
rain mn
cm
humidity
%
barometer
mb
20260509130041 13 210 4.8 4.8 0.00 0.00 0.00 69 1006.9
20260509125537 12 266 1.6 3.2 0.00 0.00 0.00 71 1006.8
20260509125033 12 256 1.6 4.8 0.00 0.00 0.00 71 1006.7
20260509124530 12 259 3.2 3.2 0.00 0.00 0.00 73 1006.6
20260509124027 11 249 1.6 3.2 0.00 0.00 0.00 75 1006.6
20260509123525 11 302 0.0 3.2 0.00 0.00 0.00 76 1006.9
20260509123016 11 269 0.0 1.6 0.00 0.00 0.00 77 1006.8
20260509122513 10 236 1.6 4.8 0.00 0.00 0.00 78 1006.8
20260509122009 11 231 3.2 3.2 0.00 0.00 0.00 80 1006.3
20260509121506 11 224 3.2 3.2 0.00 0.00 0.00 73 1006.3
20260509121004 11 243 1.6 3.2 0.00 0.00 0.00 75 1006.2
20260509120502 10 252 3.2 3.2 0.00 0.00 0.00 76 1006.2
20260509120000 10 259 1.6 3.2 0.00 0.00 0.00 77 1006.3
20260509115456 10 243 3.2 4.8 0.00 0.00 0.00 78 1006.2
20260509114954 10 249 4.8 8.0 0.00 0.00 0.00 78 1006.1
20260509114452 10 251 3.2 4.8 0.00 0.00 0.00 78 1006.0
20260509113951 10 280 1.6 1.6 0.00 0.00 0.00 80 1005.8
20260509113448 9 281 0.0 1.6 0.00 0.00 0.00 81 1005.8
20260509112945 9 275 0.0 0.0 0.00 0.00 0.00 83 1005.8
20260509112443 9 275 0.0 1.6 0.00 0.00 0.00 84 1005.8
20260509111939 9 274 1.6 3.2 0.00 0.00 0.00 84 1005.9
20260509111437 9 286 1.6 3.2 0.00 0.00 0.00 84 1006.0
20260509110934 9 299 3.2 4.8 0.00 0.00 0.00 85 1005.9
20260509110429 9 292 3.2 3.2 0.00 0.00 0.00 85 1005.9
20260509105928 9 270 1.6 3.2 0.00 0.00 0.00 86 1005.6
20260509105426 9 292 4.8 4.8 0.00 0.00 0.00 87 1005.8
20260509104923 9 298 3.2 9.7 0.00 0.00 0.00 87 1005.9
20260509104420 9 290 4.8 8.0 0.00 0.00 0.00 86 1005.7
20260509103917 9 293 4.8 4.8 0.00 0.00 0.00 86 1005.9
20260509103414 9 293 3.2 4.8 0.00 0.00 0.00 86 1005.7
20260509102913 9 301 1.6 3.2 0.00 0.00 0.00 87 1005.6
20260509102410 10 233 3.2 4.8 0.00 0.00 0.00 86 1005.2
20260509101905 10 275 1.6 3.2 0.00 0.00 0.00 85 1005.2
20260509101401 10 277 0.0 1.6 0.00 0.00 0.00 85 1005.3
20260509100900 10 277 0.0 0.0 0.00 0.00 0.00 85 1005.4
20260509100356 10 277 0.0 1.6 0.00 0.00 0.00 85 1005.4
20260509095853 10 277 0.0 1.6 0.00 0.00 0.00 85 1005.5
20260509095351 10 278 1.6 3.2 0.00 0.00 0.00 85 1005.7
20260509094847 10 276 0.0 1.6 0.00 0.00 0.00 86 1005.5
20260509094344 10 275 0.0 1.6 0.00 0.00 0.00 85 1005.5
20260509093842 10 275 1.6 1.6 0.00 0.00 0.00 85 1005.8
20260509093338 10 280 0.0 0.0 0.00 0.00 0.00 85 1005.4
20260509092837 10 281 0.0 1.6 0.00 0.00 0.00 85 1005.5
20260509092335 10 285 0.0 3.2 0.00 0.00 0.00 86 1005.4
20260509091832 11 284 1.6 3.2 0.00 0.00 0.00 85 1005.4
20260509091329 11 292 1.6 1.6 0.00 0.00 0.00 86 1005.3
20260509090826 11 286 0.0 1.6 0.00 0.00 0.00 86 1005.4
20260509090324 11 290 1.6 3.2 0.00 0.00 0.00 85 1005.4
20260509085821 11 281 1.6 4.8 0.00 0.00 0.00 85 1005.5
20260509085318 11 296 1.6 4.8 0.00 0.00 0.00 85 1005.3
20260509084814 11 291 3.2 8.0 0.00 0.00 0.00 85 1005.5
20260509084311 11 275 3.2 8.0 0.00 0.00 0.00 84 1005.5
20260509083809 11 303 1.6 4.8 0.00 0.00 0.00 85 1005.5
20260509083306 11 297 3.2 4.8 0.00 0.00 0.00 84 1005.4
20260509082803 12 335 0.0 3.2 0.00 0.00 0.00 83 1005.3
20260509082259 11 264 3.2 3.2 0.00 0.00 0.00 83 1005.3
20260509081756 11 284 6.4 8.0 0.00 0.00 0.00 84 1005.3
20260509081253 11 296 1.6 3.2 0.00 0.00 0.00 84 1005.4
20260509080752 12 281 0.0 3.2 0.00 0.00 0.00 83 1005.4
20260509080249 12 302 1.6 3.2 0.00 0.00 0.00 83 1005.4
20260509075747 12 271 1.6 3.2 0.00 0.00 0.00 83 1005.4
20260509075244 11 283 1.6 3.2 0.00 0.00 0.00 84 1005.3
20260509074741 11 275 0.0 3.2 0.00 0.00 0.00 84 1005.3
20260509074239 12 284 0.0 1.6 0.00 0.00 0.00 84 1005.4
20260509073735 12 280 0.0 3.2 0.00 0.00 0.00 84 1005.3
20260509073231 12 231 1.6 3.2 0.00 0.00 0.00 84 1005.4
20260509072728 11 245 3.2 3.2 0.00 0.00 0.00 84 1005.5
20260509072225 12 237 1.6 4.8 0.00 0.00 0.00 84 1005.5
20260509071721 12 228 3.2 4.8 0.00 0.00 0.00 82 1005.4
20260509071219 12 212 4.8 4.8 0.00 0.00 0.00 82 1005.6
20260509070715 12 244 3.2 4.8 0.00 0.00 0.00 82 1005.7
20260509070212 12 261 1.6 8.0 0.00 0.00 0.00 81 1005.6
20260509065708 13 270 1.6 4.8 0.00 0.00 0.00 81 1005.8
20260509065204 13 239 4.8 8.0 0.00 0.00 0.00 80 1005.8
20260509064701 13 243 1.6 9.7 0.00 0.00 0.00 80 1005.7
20260509064159 13 244 4.8 8.0 0.00 0.00 0.00 81 1005.7
20260509063656 13 289 1.6 4.8 0.00 0.00 0.00 81 1005.9
20260509063152 12 254 4.8 4.8 0.00 0.00 0.00 82 1006.0
20260509062649 13 238 3.2 4.8 0.00 0.00 0.00 82 1005.8
20260509062146 12 223 4.8 8.0 0.00 0.00 0.00 84 1005.9
20260509061643 12 270 1.6 4.8 0.00 0.00 0.00 84 1005.8
20260509061141 12 295 1.6 4.8 0.00 0.00 0.00 84 1005.9
20260509060638 12 223 3.2 4.8 0.00 0.00 0.00 85 1005.6
20260509060134 12 264 3.2 3.2 0.00 0.00 0.00 86 1005.7
20260509055630 12 226 4.8 8.0 0.00 0.00 0.00 86 1005.6
20260509055126 12 237 3.2 3.2 0.00 0.00 0.00 86 1005.5
20260509054623 12 250 1.6 3.2 0.00 0.00 0.00 86 1005.6
20260509054120 12 272 1.6 3.2 0.00 0.00 0.00 86 1005.5
20260509053619 12 226 3.2 4.8 0.00 0.00 0.00 86 1005.6
20260509053115 12 233 3.2 4.8 0.00 0.00 0.00 86 1005.5
20260509052613 12 225 4.8 8.0 0.00 0.00 0.00 85 1005.4
20260509052111 13 215 6.4 8.0 0.00 0.00 0.00 85 1005.5
20260509051608 13 225 4.8 4.8 0.00 0.00 0.00 84 1005.7
20260509051105 13 216 4.8 8.0 0.00 0.00 0.00 84 1005.4
20260509050602 13 260 4.8 8.0 0.00 0.00 0.00 84 1005.7
20260509050058 13 237 4.8 8.0 0.00 0.00 0.00 83 1005.7
20260509045556 13 214 4.8 9.7 0.00 0.00 0.00 83 1005.7
20260509045053 13 220 8.0 9.7 0.00 0.00 0.00 82 1005.7
20260509044550 14 219 6.4 11.3 0.00 0.00 0.00 81 1005.7
20260509044047 14 209 6.4 11.3 0.00 0.00 0.00 81 1005.6
20260509043544 14 188 8.0 12.9 0.00 0.00 0.00 80 1005.5
20260509043039 14 199 8.0 12.9 0.00 0.00 0.00 80 1005.5
20260509042536 15 212 8.0 11.3 0.00 0.00 0.00 79 1005.5
20260509042032 15 209 8.0 11.3 0.00 0.00 0.00 79 1005.6
20260509041529 15 212 6.4 14.5 0.00 0.00 0.00 79 1005.6
20260509041027 15 214 8.0 12.9 0.00 0.00 0.00 78 1005.8
20260509040525 15 220 9.7 14.5 0.00 0.00 0.00 78 1005.8
20260509040022 15 218 8.0 12.9 0.00 0.00 0.00 78 1005.7
20260509035518 15 206 8.0 11.3 0.00 0.00 0.00 77 1005.9
20260509035014 15 209 9.7 12.9 0.00 0.00 0.00 77 1005.7
20260509034513 15 223 8.0 11.3 0.00 0.00 0.00 76 1005.9
20260509034009 15 228 6.4 12.9 0.00 0.00 0.00 76 1005.8
20260509033506 15 215 9.7 11.3 0.00 0.00 0.00 75 1005.7
20260509033003 16 229 8.0 14.5 0.00 0.00 0.00 75 1005.9
20260509032500 16 218 9.7 12.9 0.00 0.00 0.00 74 1005.9
20260509031958 16 219 11.3 12.9 0.00 0.00 0.00 73 1005.9
20260509031455 16 215 11.3 12.9 0.00 0.00 0.00 72 1005.8
20260509030952 16 211 11.3 14.5 0.00 0.00 0.00 72 1005.9
20260509030450 17 197 8.0 12.9 0.00 0.00 0.00 70 1005.8
20260509025947 17 201 8.0 11.3 0.00 0.00 0.00 71 1006.0
20260509025442 17 248 1.6 4.8 0.00 0.00 0.00 70 1006.3
20260509024938 17 210 8.0 11.3 0.00 0.00 0.00 70 1005.9
20260509024434 17 207 8.0 12.9 0.00 0.00 0.00 69 1006.1
20260509023931 17 224 11.3 14.5 0.00 0.00 0.00 68 1005.7
20260509023428 17 237 11.3 16.1 0.00 0.00 0.00 67 1005.6
20260509022925 17 233 8.0 12.9 0.00 0.00 0.00 66 1005.6
20260509022422 17 222 12.9 20.9 0.00 0.00 0.00 65 1005.3
20260509021920 17 210 9.7 12.9 0.00 0.00 0.00 66 1005.5
20260509021416 18 215 12.9 16.1 0.00 0.00 0.00 65 1005.3
20260509020914 18 217 14.5 20.9 0.00 0.00 0.00 64 1005.1
20260509020412 18 214 8.0 12.9 0.00 0.00 0.00 61 1004.9
20260509015909 18 232 14.5 20.9 0.00 0.00 0.00 61 1005.2
20260509015408 18 233 6.4 11.3 0.00 0.00 0.00 58 1005.2
20260509014903 18 240 8.0 17.7 0.00 0.00 0.00 57 1005.4
20260509014400 18 240 11.3 16.1 0.00 0.00 0.00 55 1006.0
20260509013857 18 217 6.4 9.7 0.00 0.00 0.00 54 1005.7
20260509013354 18 232 4.8 9.7 0.00 0.00 0.00 53 1005.4
20260509012849 19 247 6.4 9.7 0.00 0.00 0.00 52 1005.2
20260509012346 19 225 6.4 9.7 0.00 0.00 0.00 51 1004.9
20260509011844 19 225 4.8 8.0 0.00 0.00 0.00 52 1004.7
20260509011341 19 272 1.6 1.6 0.00 0.00 0.00 53 1004.7
20260509010839 19 229 3.2 8.0 0.00 0.00 0.00 52 1004.7
20260509010336 20 228 8.0 9.7 0.00 0.00 0.00 51 1004.8
20260509005827 20 226 8.0 11.3 0.00 0.00 0.00 50 1004.7
20260509005325 20 234 3.2 9.7 0.00 0.00 0.00 51 1004.9
20260509004820 20 241 6.4 8.0 0.00 0.00 0.00 49 1004.8
20260509004316 20 228 9.7 12.9 0.00 0.00 0.00 48 1004.7
20260509003814 20 212 8.0 12.9 0.00 0.00 0.00 48 1004.8
20260509003311 20 228 4.8 9.7 0.00 0.00 0.00 48 1004.6
20260509002803 21 220 8.0 12.9 0.00 0.00 0.00 48 1004.6
20260509002301 21 209 11.3 14.5 0.00 0.00 0.00 46 1004.5
20260509001758 21 231 9.7 11.3 0.00 0.00 0.00 47 1004.5
20260509001254 21 224 6.4 12.9 0.00 0.00 0.00 46 1004.4
20260509000752 21 152 4.8 17.7 0.00 0.00 0.00 46 1004.4
20260509000248 21 232 9.7 16.1 0.00 0.00 0.00 45 1004.6
20260508235746 21 211 8.0 14.5 0.00 0.00 0.00 44 1004.5
20260508235242 22 206 9.7 12.9 0.00 0.00 0.00 40 1004.5
20260508234740 22 217 9.7 20.9 0.00 0.00 0.00 38 1004.6
20260508234235 22 217 8.0 17.7 0.00 0.00 0.00 37 1004.6
20260508233735 22 213 11.3 14.5 0.00 0.00 0.00 34 1004.6
20260508233232 23 220 8.0 11.3 0.00 0.00 0.00 36 1004.7
20260508232729 23 255 6.4 11.3 0.00 0.00 0.00 34 1004.7
20260508232226 23 206 6.4 11.3 0.00 0.00 0.00 35 1004.9
20260508231724 22 261 4.8 11.3 0.00 0.00 0.00 33 1005.0
20260508231220 22 251 3.2 8.0 0.00 0.00 0.00 37 1004.8
20260508230717 22 242 6.4 11.3 0.00 0.00 0.00 38 1005.0
20260508230213 23 230 4.8 11.3 0.00 0.00 0.00 36 1004.8
20260508225712 22 235 6.4 14.5 0.00 0.00 0.00 35 1005.0
20260508225207 23 206 9.7 14.5 0.00 0.00 0.00 35 1005.0
20260508224706 23 269 3.2 8.0 0.00 0.00 0.00 37 1005.1
20260508224203 23 175 8.0 11.3 0.00 0.00 0.00 37 1005.2
20260508223700 23 216 4.8 14.5 0.00 0.00 0.00 37 1005.1
20260508223157 22 221 6.4 11.3 0.00 0.00 0.00 37 1005.1
20260508222655 22 214 8.0 11.3 0.00 0.00 0.00 36 1005.2
20260508222152 23 213 8.0 12.9 0.00 0.00 0.00 37 1005.1
20260508221648 22 217 6.4 11.3 0.00 0.00 0.00 36 1005.2
20260508221144 23 232 6.4 9.7 0.00 0.00 0.00 36 1005.3
20260508220641 23 259 3.2 11.3 0.00 0.00 0.00 36 1005.3
20260508220137 22 228 8.0 11.3 0.00 0.00 0.00 34 1005.2
20260508215634 23 206 12.9 14.5 0.00 0.00 0.00 33 1005.3
20260508215131 23 208 9.7 14.5 0.00 0.00 0.00 36 1005.5
20260508214628 22 245 6.4 11.3 0.00 0.00 0.00 35 1005.4
20260508214125 23 220 8.0 9.7 0.00 0.00 0.00 35 1005.5
20260508213622 23 220 9.7 16.1 0.00 0.00 0.00 34 1005.6
20260508213117 23 224 8.0 14.5 0.00 0.00 0.00 35 1005.5
20260508212614 23 222 8.0 11.3 0.00 0.00 0.00 33 1005.7
20260508212111 23 222 8.0 11.3 0.00 0.00 0.00 33 1005.7
20260508211606 23 274 4.8 8.0 0.00 0.00 0.00 32 1005.8
20260508211103 23 321 0.0 9.7 0.00 0.00 0.00 32 1005.7
20260508210559 23 196 3.2 4.8 0.00 0.00 0.00 28 1005.7
20260508210057 22 285 0.0 1.6 0.00 0.00 0.00 29 1005.7
20260508205554 22 280 4.8 4.8 0.00 0.00 0.00 28 1005.9
20260508205050 23 290 11.3 12.9 0.00 0.00 0.00 28 1005.9
20260508204547 23 303 4.8 14.5 0.00 0.00 0.00 28 1006.0
20260508204042 24 313 6.4 14.5 0.00 0.00 0.00 27 1006.1
20260508203539 24 354 3.2 3.2 0.00 0.00 0.00 28 1006.0
20260508203035 23 280 3.2 8.0 0.00 0.00 0.00 29 1006.2
20260508202532 23 249 6.4 14.5 0.00 0.00 0.00 27 1006.2
20260508202029 24 252 6.4 9.7 0.00 0.00 0.00 27 1006.6
20260508201525 24 281 1.6 4.8 0.00 0.00 0.00 31 1006.4
20260508201022 23 257 3.2 12.9 0.00 0.00 0.00 30 1006.6
20260508200519 23 259 1.6 11.3 0.00 0.00 0.00 29 1006.6
20260508200015 22 40 4.8 9.7 0.00 0.00 0.00 29 1006.4
20260508195512 23 14 3.2 8.0 0.00 0.00 0.00 30 1006.6
20260508195008 25 280 3.2 11.3 0.00 0.00 0.00 28 1006.7
20260508194505 23 270 1.6 3.2 0.00 0.00 0.00 30 1006.7
20260508194002 23 269 1.6 4.8 0.00 0.00 0.00 29 1006.9
20260508193459 22 290 3.2 11.3 0.00 0.00 0.00 28 1007.0
20260508192955 22 297 4.8 8.0 0.00 0.00 0.00 30 1007.0
20260508192452 22 333 9.7 22.5 0.00 0.00 0.00 30 1007.1
20260508191949 23 11 4.8 8.0 0.00 0.00 0.00 30 1007.1
20260508191446 22 285 4.8 9.7 0.00 0.00 0.00 29 1007.1
20260508190942 22 256 6.4 9.7 0.00 0.00 0.00 30 1007.2
20260508190440 22 230 6.4 12.9 0.00 0.00 0.00 30 1007.3
20260508185936 22 210 6.4 8.0 0.00 0.00 0.00 30 1007.2
20260508185434 22 29 3.2 3.2 0.00 0.00 0.00 28 1007.4
20260508184931 22 295 6.4 9.7 0.00 0.00 0.00 29 1007.3
20260508184428 22 305 6.4 11.3 0.00 0.00 0.00 29 1007.6
20260508183924 22 345 4.8 4.8 0.00 0.00 0.00 29 1007.7
20260508183421 22 329 3.2 8.0 0.00 0.00 0.00 31 1007.6
20260508182916 22 293 4.8 8.0 0.00 0.00 0.00 29 1007.7
20260508182414 21 8 9.7 14.5 0.00 0.00 0.00 30 1007.7
20260508181909 22 318 4.8 11.3 0.00 0.00 0.00 31 1007.7
20260508181406 22 255 1.6 8.0 0.00 0.00 0.00 30 1007.7
20260508180903 21 238 3.2 3.2 0.00 0.00 0.00 32 1007.7
20260508180400 22 322 4.8 9.7 0.00 0.00 0.00 31 1007.9
20260508175856 21 359 9.7 9.7 0.00 0.00 0.00 30 1007.8
20260508175353 21 4 4.8 12.9 0.00 0.00 0.00 31 1007.9
20260508174851 22 277 1.6 3.2 0.00 0.00 0.00 28 1007.9
20260508174348 22 226 4.8 4.8 0.00 0.00 0.00 35 1007.8
20260508173839 21 259 1.6 4.8 0.00 0.00 0.00 31 1007.9
20260508173337 21 355 4.8 11.3 0.00 0.00 0.00 30 1008.1
20260508172832 21 358 4.8 11.3 0.00 0.00 0.00 33 1008.1
20260508172330 21 282 0.0 4.8 0.00 0.00 0.00 34 1008.1
20260508171826 21 319 0.0 1.6 0.00 0.00 0.00 31 1008.3
20260508171322 21 343 6.4 9.7 0.00 0.00 0.00 33 1008.5
20260508170819 22 285 1.6 4.8 0.00 0.00 0.00 35 1008.4
20260508170317 22 293 0.0 1.6 0.00 0.00 0.00 36 1008.5
20260508165814 21 301 0.0 4.8 0.00 0.00 0.00 34 1008.6
20260508165311 21 303 3.2 8.0 0.00 0.00 0.00 36 1008.4
20260508164807 21 290 0.0 1.6 0.00 0.00 0.00 33 1008.5
20260508164304 21 253 3.2 3.2 0.00 0.00 0.00 34 1008.4
20260508163802 20 252 1.6 4.8 0.00 0.00 0.00 34 1008.6
20260508163259 20 329 0.0 4.8 0.00 0.00 0.00 41 1008.7
20260508162755 20 263 4.8 9.7 0.00 0.00 0.00 39 1008.5
20260508162252 20 239 1.6 4.8 0.00 0.00 0.00 46 1008.7
20260508161749 20 144 4.8 11.3 0.00 0.00 0.00 46 1008.9
20260508161246 20 217 6.4 9.7 0.00 0.00 0.00 47 1008.8
20260508160744 18 138 6.4 9.7 0.00 0.00 0.00 49 1008.8
20260508160242 19 262 3.2 4.8 0.00 0.00 0.00 50 1008.9
20260508155738 18 261 0.0 4.8 0.00 0.00 0.00 49 1009.1
20260508155235 19 169 3.2 8.0 0.00 0.00 0.00 50 1009.1
20260508154726 18 215 3.2 4.8 0.00 0.00 0.00 54 1008.9
20260508154224 18 228 3.2 4.8 0.00 0.00 0.00 54 1008.9
20260508153720 18 232 1.6 4.8 0.00 0.00 0.00 57 1009.0
20260508153217 18 184 4.8 4.8 0.00 0.00 0.00 55 1009.0
20260508152714 17 217 0.0 3.2 0.00 0.00 0.00 58 1009.1
20260508152209 17 169 3.2 4.8 0.00 0.00 0.00 59 1009.0
20260508151706 17 236 3.2 3.2 0.00 0.00 0.00 60 1009.3
20260508151203 17 207 4.8 8.0 0.00 0.00 0.00 59 1009.1
20260508150700 17 296 0.0 1.6 0.00 0.00 0.00 59 1009.2
20260508150157 16 92 1.6 4.8 0.00 0.00 0.00 61 1009.3
20260508145652 16 246 1.6 4.8 0.00 0.00 0.00 61 1009.4
20260508145149 16 206 3.2 3.2 0.00 0.00 0.00 62 1009.3
20260508144646 15 345 1.6 3.2 0.00 0.00 0.00 65 1009.3
20260508144144 14 177 4.8 8.0 0.00 0.00 0.00 67 1009.4
20260508143641 13 208 1.6 4.8 0.00 0.00 0.00 67 1009.4
20260508143138 13 225 4.8 9.7 0.00 0.00 0.00 68 1009.5
20260508142634 12 242 1.6 3.2 0.00 0.00 0.00 70 1009.3
20260508142131 12 243 3.2 4.8 0.00 0.00 0.00 70 1009.5
20260508141628 12 213 3.2 4.8 0.00 0.00 0.00 71 1009.6
20260508141125 12 210 3.2 4.8 0.00 0.00 0.00 71 1009.7
20260508140623 11 222 4.8 8.0 0.00 0.00 0.00 70 1009.7
20260508140119 11 243 3.2 8.0 0.00 0.00 0.00 73 1009.6
20260508135614 11 247 3.2 3.2 0.00 0.00 0.00 71 1009.6
20260508135111 11 252 1.6 1.6 0.00 0.00 0.00 71 1009.5
20260508134608 11 253 0.0 3.2 0.00 0.00 0.00 72 1009.5
20260508134105 11 254 0.0 1.6 0.00 0.00 0.00 73 1009.5
20260508133601 10 253 0.0 3.2 0.00 0.00 0.00 72 1009.5
20260508133058 10 253 1.6 1.6 0.00 0.00 0.00 73 1009.8
20260508132551 10 244 3.2 4.8 0.00 0.00 0.00 72 1009.6
20260508132047 10 258 0.0 3.2 0.00 0.00 0.00 71 1009.7
20260508131542 10 227 3.2 3.2 0.00 0.00 0.00 70 1009.5
20260508131040 10 235 1.6 3.2 0.00 0.00 0.00 69 1009.4
20260508130537 10 196 1.6 4.8 0.00 0.00 0.00 69 1009.2